Regional Weather Roundup
Issued by NWS

Home | Current Version | Previous Version | Graphics & Text | Print | Product List | Glossary On
Versions: 1 2 3 4 5 6 7 8 9 10 11 12 13 14 15 16 17 18 19 20 21 22 23 24 25 26 27 28 29 30 31 32 33 34 35 36 37 38 39 40 41 42 43 44 45 46 47 48 49 50
000
ASUS45 KCYS 241210
RWRWY

WYOMING REGIONAL WEATHER ROUNDUP
NATIONAL WEATHER SERVICE CHEYENNE WY
600 AM MDT SUN MAY 24 2015

NOTE:  "FAIR" INDICATES FEW OR NO CLOUDS BELOW 12,000 FEET
WITH NO SIGNIFICANT WEATHER AND/OR OBSTRUCTIONS TO VISIBILITY.

WYZ001-241300-
YELLOWSTONE NATIONAL PARK

CITY           SKY/WX    TMP DP  RH WIND       PRES   REMARKS
LK YELLOWSTONE   N/A     32  30  92 CALM      30.08R
6HR MIN TEMP:  32; 6HR MAX TEMP:  40;

W YELLOWSTONE  NOT AVBL

$$
WYZ002>013-054>058-071-098>099-241300-
NORTHERN WYOMING

CITY           SKY/WX    TMP DP  RH WIND       PRES   REMARKS
JACKSON        FAIR      36  34  93 NW7       30.01R WCI  30
CODY           CLOUDY    45  43  93 N12       30.02R
GREYBULL       MOCLDY    50  45  83 NW17      29.94F
6HR MIN TEMP:  49; 6HR MAX TEMP:  53; 6HR PCP: TRACE;

WORLAND        LGT RAIN  49  46  90 NW6       29.95F
6HR MIN TEMP:  49; 6HR MAX TEMP:  51; 6HR PCP:  0.02;

SHERIDAN       CLOUDY    49  47  93 NW7       30.00F
6HR MIN TEMP:  48; 6HR MAX TEMP:  50; 6HR PCP:  0.01;

BUFFALO        RAIN      46  46 100 N14G23    29.99F FOG
6HR MIN TEMP:  46; 6HR MAX TEMP:  48; 6HR PCP:  0.18;

GILLETTE       LGT RAIN  50  48  93 NE12      29.95S
6HR MIN TEMP:  49; 6HR MAX TEMP:  50; 6HR PCP:  0.13;

HULETT         LGT RAIN  50  48  93 NE7       29.98F
NEWCASTLE      DRIZZLE   50  50 100 CALM      29.93S

$$
WYZ014>020-022>026-101>103-241300-
CENTRAL WYOMING

CITY           SKY/WX    TMP DP  RH WIND       PRES   REMARKS
BIG PINEY      MOCLDY    39  35  86 NE5       29.99R
6HR MIN TEMP:  36; 6HR MAX TEMP:  43;

PINEDALE       CLOUDY    36  36 100 NW3       29.99S
DUBOIS         PTSUNNY   36  34  93 NW9       30.00S WCI  29
LANDER         LGT RAIN  45  43  93 NE8       29.96S
6HR MIN TEMP:  44; 6HR MAX TEMP:  47; 6HR PCP:  0.42;

RIVERTON       LGT RAIN  45  43  93 N16G23    29.97S
6HR MIN TEMP:  45; 6HR MAX TEMP:  47; 6HR PCP:  0.25;

CASPER         LGT RAIN  44  42  93 NW3       29.91S FOG
6HR MIN TEMP:  44; 6HR MAX TEMP:  46; 6HR PCP:  0.58;

DOUGLAS        LGT RAIN  46  46 100 SW5       29.91S FOG
6HR MIN TEMP:  46; 6HR MAX TEMP:  48; 6HR PCP:  0.73;


$$
WYZ021-027>030-104>119-241300-
SOUTHERN WYOMING

CITY           SKY/WX    TMP DP  RH WIND       PRES   REMARKS
EVANSTON       CLOUDY    37  35  92 SW7       29.99S WCI  32
6HR MIN TEMP:  37; 6HR MAX TEMP:  41;

KEMMERER       FAIR      34  32  93 N8        30.00R WCI  27
FORT BRIDGER   PTSUNNY   41  41 100 W12       30.00F
ROCK SPRINGS   LGT RAIN  40  38  93 NE7       29.97S
6HR MIN TEMP:  40; 6HR MAX TEMP:  43; 6HR PCP:  0.11;

DIXON          RAIN      41  38  91 W3        29.98S
RAWLINS        MIX PCPN  34  32  92 SW6       29.95S WCI  29
6HR MIN TEMP:  33; 6HR MAX TEMP:  40; 6HR PCP:  0.33;

SARATOGA       LGT RAIN  34  34 100 CALM      29.96F
LARAMIE        CLOUDY    38  38 100 SE6       29.94R WCI  33
6HR MIN TEMP:  37; 6HR MAX TEMP:  39; 6HR PCP: TRACE;

CHEYENNE       FAIR      37  36  96 CALM      29.93R
6HR MIN TEMP:  37; 6HR MAX TEMP:  46;

TORRINGTON     CLOUDY    49  49 100 E3        29.89R
6HR MIN TEMP:  49; 6HR MAX TEMP:  52; 6HR PCP:  0.13;

PINE BLUFFS    CLOUDY    46  45  93 W3        29.92R

$$


USA.gov is the U.S. government's official web portal to all federal, state and local government web resources and services.